Location: ?ern� Novina
(50.6762°N, 14.8696°E)
Time: 12:01:18
(UTC+00:00)

Okean 3 - Pass Details

Date: 03 March 2021
Orbit: 577 x 600 km, 82.5° (Epoch: 16 April)

Event Time Altitude Azimuth Distance (km) Brightness Sun altitude
Rises 18:35:09 0° 352° (N) 2,832 7.2 -18.1°
Reaches altitude 10° 18:37:23 10° 355° (N) 1,930 6.3 -18.4°
Maximum altitude 18:41:37 63° 77° (ENE) 665 3.4 -19.1°
Enters shadow 18:43:01 39° 142° (SE) 893 4.0 -19.3°
